[[{"header":{"parameterUnit":"m.s-1","parameterCategory":2,"la1":30.2991,"la2":30.254,"lo1":-89.0895,"lo2":-89.0444,"dy":0.0017,"dx":0.0017,"nx":28,"ny":28,"refTime":"2024-04-14T03:00:00:Z","depth":"0","parameterNumber":2,"parameterNumberName":"U-component_of_CURRENTS"},"data":[0,0,0,0,0,0,0,0,0,0,0,0,0,0,0,0,0,0,0,0,0,0,0,0,0,0,0,0,0,0,0,0,0,0,0,0,0,0,0,0,0,0,0,0,0,0,0,0,0,0,0,0,0,0,0,0,0,0,0.2828,0.2829,0,0.2872,0.2872,0.2872,0.287,0.287,0.2869,0.2869,0.2889,0.289,0.2891,0,0,0,0,0,0,0,0,0,0,0,0,0,0.2776,0.2776,0.2828,0.2829,0.2829,0.2871,0.2872,0.2872,0.287,0.287,0.2869,0.2869,0.2889,0.289,0.2891,0,0,0,0,0,0,0,0,0,0,0,0,0,0.2805,0.2777,0.2828,0.2835,0.2836,0.2871,0.2872,0.2872,0.287,0.287,0.2869,0.2868,0.2889,0.289,0.2892,0.2914,0,0,0.2896,0.2897,0,0,0,0,0,0,0,0,0.2803,0.2807,0.2833,0.2834,0.2836,0.2866,0.2861,0.2886,0.287,0.2855,0.2869,0.2868,0.2881,0.2883,0.2891,0.2915,0.2916,0.2896,0.2897,0.2898,0.2898,0,0,0,0,0,0,0,0.2801,0.2805,0.2843,0.2834,0.2836,0.2847,0.285,0.2866,0.287,0.2857,0.2857,0.2865,0.2881,0.2889,0.2891,0.2916,0.2896,0.2897,0.2898,0.2899,0.2965,0.2966,0,0,0,0,0,0,0.2799,0.2803,0.2842,0.2845,0.282,0.2849,0.2852,0.2856,0.287,0.2872,0.2866,0.2865,0.2887,0.2889,0.2892,0.2925,0.2898,0.2899,0.29,0.2965,0.2966,0.2967,0,0,0,0,0,0,0.2797,0.2802,0.284,0.2827,0.2832,0.285,0.2855,0.2857,0.2867,0.2877,0.2879,0.2874,0.2887,0.289,0.2905,0.2925,0.29,0.2901,0.2963,0.2965,0.2966,0.2987,0,0,0,0,0,0,0.2796,0.2801,0.2803,0.2826,0.2833,0.2858,0.2856,0.2858,0.2874,0.2873,0.2885,0.2886,0.2886,0.2902,0.2906,0.2927,0.2902,0.2962,0.2964,0.2966,0.2985,0.2989,0.2992,0,0,0,0,0,0.2793,0.2797,0.2802,0.2807,0.2835,0.2859,0.2863,0.2872,0.2875,0.2879,0.2887,0.2886,0.2916,0.2904,0.2908,0.293,0.2962,0.2964,0.2966,0.2984,0.2988,0.2992,0,0,0,0,0,0,0.2772,0.2798,0.2804,0.2815,0.2835,0.2859,0.2866,0.2878,0.2889,0.2889,0.2895,0.2897,0.2922,0.2923,0.291,0.2954,0.294,0.2943,0.2953,0.2957,0.296,0.2963,0.2903,0,0,0,0,0,0.2771,0.2778,0.2807,0.2813,0.2825,0.2848,0.286,0.287,0.2886,0.289,0.2895,0.2909,0.2935,0.2941,0.2957,0.2978,0.2999,0.2996,0.2999,0.3002,0.3007,0.3065,0.3074,0.2973,0.2973,0.2973,0,0,0.2762,0.2779,0.2782,0.2809,0.2825,0.2847,0.2853,0.2873,0.2893,0.2892,0.2909,0.2923,0.2945,0.2969,0.2981,0.297,0.3041,0.3005,0.3007,0.3011,0.3068,0.3078,0.3086,0.2975,0.2974,0.2974,0,0,0.2754,0.2767,0.2775,0.2796,0.2827,0.2846,0.2854,0.288,0.2892,0.2916,0.2926,0.2948,0.2973,0.2993,0.301,0.3043,0.3061,0.3051,0.3066,0.3122,0.3131,0.3139,0.3173,0.3184,0.3048,0.3048,0.3048,0,0.2745,0.2759,0.2781,0.2801,0.2818,0.2847,0.2864,0.2889,0.2914,0.2929,0.292,0.2977,0.2988,0.3039,0.3048,0.3052,0.3081,0.3048,0.3127,0.3136,0.3144,0.3177,0.3189,0.3049,0.3049,0.3049,0.3049,0,0.2749,0.2763,0.2771,0.2805,0.2828,0.2846,0.2887,0.2907,0.2925,0.2949,0.2994,0.3011,0.3046,0.3056,0.3063,0.3127,0.3129,0.3129,0.3116,0.3155,0.3187,0.3199,0.3051,0.305,0.305,0.305,0,0,0.2717,0.2764,0.2765,0.278,0.2831,0.2847,0.2891,0.2935,0.2968,0.2992,0.3035,0.3075,0.3088,0.3108,0.3124,0.3163,0.3239,0.317,0.3172,0.3203,0.3357,0.3236,0.3237,0.326,0.3262,0.3264,0.3355,0,0.2711,0.2738,0.2769,0.2796,0.2813,0.2859,0.2897,0.2944,0.2984,0.3031,0.3072,0.3118,0.3111,0.3134,0.3177,0.3235,0.3273,0.3213,0.3316,0.3319,0.3206,0.3248,0.3081,0.3138,0.3367,0.3369,0.3371,0,0.2701,0.2722,0.2744,0.2792,0.2805,0.2831,0.2895,0.2936,0.302,0.3053,0.311,0.315,0.3225,0.3208,0.3322,0.329,0.3325,0.3356,0.336,0.3248,0.3219,0.3138,0.3152,0.3066,0.3389,0.3388,0.3386,0,0.2656,0.2701,0.2714,0.273,0.2794,0.2818,0.2859,0.2938,0.298,0.3078,0.312,0.3208,0.3259,0.3331,0.339,0.3376,0.3506,0.3494,0.3414,0.3405,0.3282,0.3257,0.322,0.3569,0.3569,0.3569,0.3568,0,0.2632,0.2641,0.2694,0.2701,0.2728,0.2788,0.2834,0.2892,0.2982,0.3038,0.313,0.3186,0.3297,0.3378,0.3424,0.3451,0.3537,0.3424,0.3425,0.3281,0.3256,0.3188,0.3161,0.3572,0.3571,0.3571,0.357,0,0.2579,0.261,0.263,0.2689,0.2707,0.2729,0.2811,0.285,0.2945,0.3028,0.3065,0.3197,0.3297,0.3384,0.3502,0.3475,0.3415,0.3509,0.3315,0.3289,0.3085,0.3065,0.2942,0.2869,0.3433,0.343,0.3428,0,0.2553,0.2557,0.2607,0.2617,0.2643,0.2686,0.2718,0.2817,0.2868,0.3023,0.3061,0.3187,0.3259,0.3371,0.3359,0.3404,0.3338,0.3248,0.317,0.3049,0.3032,0.2937,0.2879,0.3029,0.3024,0.3019,0.3016,0,0.2508,0.2526,0.2542,0.2562,0.2589,0.2617,0.2678,0.2709,0.2834,0.2908,0.3007,0.3081,0.3177,0.3132,0.3165,0.3171,0.3058,0.3157,0.3102,0.2759,0.2588,0.2525,0.2992,0.2978,0.2982,0.2985,0.2987,0.2988,0.2471,0.2469,0.2489,0.2497,0.2521,0.2532,0.2529,0.2603,0.2658,0.2739,0.2878,0.2921,0.2931,0.2943,0.2925,0.2751,0.2795,0.2643,0.2649,0.258,0.2427,0.2784,0.2718,0.272,0.2722,0.2724,0.2725,0,0.241,0.2412,0.2421,0.242,0.2403,0.2447,0.2481,0.246,0.2475,0.2577,0.2641,0.2627,0.2557,0.2552,0.2403,0.2271,0.22,0.2199,0.2056,0.2044,0.2427,0.2324,0.2083,0.2083,0.2083,0.2083,0.2083,0.2083,0.2381,0.2353,0.2349,0.2291,0.2288,0.2234,0.2226,0.2213,0.2249,0.2227,0.2213,0.2266,0.2299,0.2176,0.2,0.1941,0.1821,0.1676,0.1743,0.2036,0.2078,0.2119,0.2016,0.1714,0.1714,0.1257,0.1254,0.1251]},{"header":{"parameterUnit":"m.s-1","parameterCategory":2,"la1":30.2991,"la2":30.254,"lo1":-89.0895,"lo2":-89.0444,"dy":0.0017,"dx":0.0017,"nx":28,"ny":28,"refTime":"2024-04-14T03:00:00:Z","depth":"0","parameterNumber":3,"parameterNumberName":"V-component_of_CURRENTS"},"data":[0,0,0,0,0,0,0,0,0,0,0,0,0,0,0,0,0,0,0,0,0,0,0,0,0,0,0,0,0,0,0,0,0,0,0,0,0,0,0,0,0,0,0,0,0,0,0,0,0,0,0,0,0,0,0,0,0,0,0.0336,0.0336,0,0.0319,0.0319,0.0319,0.0298,0.0298,0.0298,0.0297,0.0261,0.026,0.0259,0,0,0,0,0,0,0,0,0,0,0,0,0,0.0319,0.032,0.0336,0.0336,0.0336,0.0319,0.0319,0.0319,0.0298,0.0298,0.0298,0.0297,0.0261,0.026,0.0259,0,0,0,0,0,0,0,0,0,0,0,0,0,0.0316,0.032,0.0336,0.0324,0.0323,0.0319,0.0319,0.0319,0.0298,0.0298,0.0298,0.0297,0.0261,0.026,0.0259,0.0261,0,0,0.0256,0.0256,0,0,0,0,0,0,0,0,0.0317,0.0317,0.0326,0.0325,0.0324,0.0311,0.03,0.0298,0.0298,0.0307,0.0297,0.0297,0.0276,0.0274,0.0271,0.0259,0.0258,0.0256,0.0255,0.0255,0.0254,0,0,0,0,0,0,0,0.0317,0.0317,0.0329,0.0326,0.0324,0.0309,0.0308,0.0299,0.0294,0.0306,0.0305,0.0304,0.0275,0.0272,0.027,0.0257,0.0256,0.0255,0.0254,0.0254,0.0247,0.0248,0,0,0,0,0,0,0.0322,0.0318,0.033,0.0329,0.032,0.0309,0.0309,0.0315,0.0294,0.0291,0.0304,0.0303,0.0275,0.0272,0.0269,0.0282,0.0255,0.0254,0.0253,0.0247,0.0247,0.0248,0,0,0,0,0,0,0.0322,0.0324,0.033,0.0323,0.0322,0.031,0.0317,0.0315,0.0314,0.0293,0.0289,0.0306,0.0274,0.027,0.0266,0.0279,0.0253,0.0252,0.0246,0.0247,0.0248,0.0299,0,0,0,0,0,0,0.0322,0.0324,0.0331,0.0323,0.0323,0.0336,0.0318,0.0315,0.0314,0.0312,0.0293,0.0289,0.0273,0.0268,0.0265,0.0278,0.0251,0.0246,0.0246,0.0247,0.0297,0.0302,0.0306,0,0,0,0,0,0.0321,0.0336,0.0331,0.0332,0.0333,0.0337,0.0335,0.0324,0.0315,0.032,0.0305,0.029,0.0271,0.0267,0.0264,0.0277,0.0245,0.0246,0.0247,0.0295,0.0301,0.0305,0,0,0,0,0,0,0.0331,0.0335,0.033,0.0344,0.0343,0.0333,0.0338,0.0329,0.0322,0.0319,0.0296,0.0292,0.0291,0.0277,0.0273,0.0276,0.0255,0.0256,0.0293,0.0298,0.0302,0.0315,0.0251,0,0,0,0,0,0.0336,0.0349,0.0346,0.0357,0.0359,0.0348,0.0348,0.0342,0.0334,0.033,0.0315,0.0301,0.0293,0.029,0.0278,0.0283,0.0266,0.0288,0.0292,0.0296,0.0304,0.0286,0.029,0.0251,0.0251,0.0251,0,0,0.0341,0.0346,0.0352,0.036,0.0357,0.037,0.0347,0.0352,0.0365,0.0328,0.0336,0.0314,0.0296,0.0299,0.0298,0.029,0.03,0.0297,0.0301,0.0307,0.0288,0.0292,0.0295,0.0252,0.0252,0.0252,0,0,0.0363,0.0364,0.0383,0.0387,0.0389,0.0386,0.039,0.0384,0.0384,0.0389,0.0364,0.035,0.0341,0.0329,0.0323,0.0344,0.032,0.034,0.0378,0.0361,0.0364,0.0367,0.0357,0.0358,0.0347,0.0347,0.0347,0,0.0367,0.0395,0.0387,0.0407,0.0418,0.0398,0.0422,0.0421,0.0413,0.0417,0.04,0.0379,0.0357,0.0363,0.0368,0.0355,0.0344,0.0361,0.0367,0.0369,0.0371,0.036,0.0361,0.0349,0.0349,0.0349,0.0349,0,0.0404,0.0425,0.0437,0.0459,0.0468,0.0485,0.0485,0.0491,0.0484,0.0476,0.0475,0.0441,0.0431,0.0419,0.0402,0.0406,0.0394,0.0372,0.0356,0.0378,0.0365,0.0365,0.0353,0.0352,0.0351,0.0351,0,0,0.0423,0.0457,0.0463,0.0487,0.05,0.0515,0.0537,0.0555,0.0575,0.055,0.0571,0.0539,0.0511,0.0502,0.0471,0.0453,0.045,0.0424,0.0422,0.0418,0.0421,0.0401,0.0399,0.043,0.043,0.043,0.041,0,0.0457,0.051,0.0517,0.0568,0.0597,0.0594,0.0622,0.063,0.0628,0.064,0.0599,0.0602,0.0547,0.0546,0.0517,0.0469,0.0452,0.0459,0.0397,0.0395,0.0377,0.0398,0.042,0.0403,0.0409,0.0409,0.0409,0,0.0498,0.053,0.0589,0.0638,0.0651,0.0677,0.0721,0.0743,0.0745,0.0743,0.0724,0.0692,0.0665,0.0615,0.0542,0.055,0.0494,0.0449,0.0446,0.041,0.0375,0.038,0.0402,0.0344,0.0409,0.0409,0.0409,0,0.0529,0.0584,0.0637,0.0653,0.07,0.073,0.0756,0.0774,0.0809,0.081,0.0832,0.0776,0.0769,0.0685,0.0585,0.0569,0.0503,0.0468,0.0397,0.0395,0.0393,0.0391,0.0355,0.042,0.042,0.042,0.042,0,0.0571,0.0613,0.0659,0.0689,0.0761,0.0775,0.0846,0.086,0.0893,0.0949,0.0889,0.0919,0.0787,0.073,0.0622,0.0514,0.053,0.0412,0.039,0.0412,0.0411,0.0343,0.0286,0.0419,0.0419,0.0419,0.0419,0,0.0602,0.0629,0.0694,0.0754,0.078,0.0833,0.0914,0.0963,0.0985,0.1058,0.1068,0.1032,0.0964,0.0825,0.0695,0.0578,0.0425,0.0422,0.0459,0.0442,0.0311,0.0256,0.017,0.0151,0.0344,0.0344,0.0343,0,0.0622,0.066,0.0744,0.0791,0.0823,0.0902,0.0962,0.1007,0.1067,0.1138,0.1181,0.1141,0.1136,0.0928,0.0714,0.0525,0.043,0.0404,0.0368,0.0316,0.0238,0.0198,0.0186,0.039,0.039,0.039,0.039,0,0.0661,0.0691,0.0746,0.0844,0.0917,0.1007,0.1095,0.1161,0.1233,0.1306,0.1386,0.1392,0.1203,0.1026,0.0748,0.06,0.0364,0.0396,0.0335,0.0267,0.0229,0.0197,0.0394,0.0389,0.0389,0.0389,0.0389,0.0389,0.0689,0.0735,0.0811,0.0905,0.0991,0.1105,0.1191,0.13,0.1426,0.1554,0.1538,0.158,0.1312,0.0943,0.0738,0.0386,0.0368,0.0283,0.0222,0.0187,0.0165,0.0362,0.0331,0.0331,0.0331,0.0331,0.033,0,0.0723,0.0779,0.0865,0.0981,0.1079,0.1123,0.1276,0.1379,0.1548,0.1665,0.1744,0.1641,0.1322,0.0974,0.0487,0.0263,0.0188,0.0138,0.01,0.0096,0.0275,0.0275,0.024,0.024,0.024,0.024,0.024,0.024,0.0742,0.0824,0.0871,0.1033,0.1118,0.1262,0.1357,0.1523,0.1646,0.1807,0.1844,0.1835,0.156,0.073,0.0224,0.0111,-0.0012,-0.0068,-0.0124,0.0008,0.0018,0.0028,0.0017,-0.0071,-0.0072,-0.0245,-0.0247,-0.0249]}],[{"header":{"parameterUnit":"m.s-1","parameterCategory":2,"la1":30.2991,"la2":30.254,"lo1":-89.0895,"lo2":-89.0444,"dy":0.0017,"dx":0.0017,"nx":28,"ny":28,"refTime":"2024-04-14T03:00:00:Z","depth":"2","parameterNumber":2,"parameterNumberName":"U-component_of_CURRENTS"},"data":[0,0,0,0,0,0,0,0,0,0,0,0,0,0,0,0,0,0,0,0,0,0,0,0,0,0,0,0,0,0,0,0,0,0,0,0,0,0,0,0,0,0,0,0,0,0,0,0,0,0,0,0,0,0,0,0,0,0,0.2305,0.2306,0,0.2318,0.2318,0.2318,0.2308,0.2308,0.2308,0.2308,0.2319,0.2319,0.2319,0,0,0,0,0,0,0,0,0,0,0,0,0,0.2297,0.2296,0.2305,0.2306,0.2306,0.2318,0.2318,0.2318,0.2308,0.2308,0.2308,0.2308,0.2319,0.2319,0.232,0,0,0,0,0,0,0,0,0,0,0,0,0,0.2301,0.2296,0.2305,0.2305,0.2305,0.2318,0.2318,0.2317,0.2308,0.2308,0.2308,0.2308,0.2318,0.2319,0.232,0.2328,0,0,0.2322,0.2322,0,0,0,0,0,0,0,0,0.2301,0.2301,0.2305,0.2305,0.2306,0.2314,0.2319,0.2322,0.2309,0.2304,0.2308,0.2308,0.2319,0.2319,0.2318,0.2328,0.2329,0.2322,0.2322,0.2322,0.2322,0,0,0,0,0,0,0,0.23,0.2301,0.2308,0.2305,0.2306,0.2312,0.2312,0.2319,0.2311,0.2305,0.2305,0.2311,0.2319,0.2318,0.2319,0.2329,0.2322,0.2322,0.2323,0.2323,0.2374,0.2375,0,0,0,0,0,0,0.2304,0.23,0.2307,0.2308,0.2306,0.2313,0.2312,0.2309,0.2311,0.2311,0.2311,0.231,0.2317,0.2318,0.2319,0.2358,0.2322,0.2323,0.2323,0.2373,0.2374,0.2375,0,0,0,0,0,0,0.2303,0.2304,0.2307,0.2307,0.2308,0.2313,0.2309,0.231,0.2318,0.2316,0.2316,0.2321,0.2317,0.2318,0.2333,0.2358,0.2323,0.2324,0.2372,0.2373,0.2375,0.2419,0,0,0,0,0,0,0.2303,0.2303,0.2306,0.2307,0.2309,0.2317,0.231,0.231,0.2323,0.2322,0.2325,0.2324,0.2317,0.2332,0.2334,0.2358,0.2324,0.2371,0.2372,0.2374,0.2416,0.2421,0.2426,0,0,0,0,0,0.2302,0.2303,0.2306,0.2307,0.231,0.2318,0.2319,0.232,0.2324,0.2327,0.2332,0.2325,0.2345,0.2333,0.2335,0.236,0.237,0.2372,0.2374,0.2414,0.242,0.2426,0,0,0,0,0,0,0.2299,0.2303,0.2305,0.2307,0.2316,0.2317,0.2324,0.2329,0.2336,0.2339,0.2335,0.2336,0.236,0.2353,0.2341,0.238,0.2358,0.236,0.2387,0.2393,0.2398,0.2401,0.2325,0,0,0,0,0,0.2302,0.2303,0.231,0.2313,0.2318,0.2325,0.2331,0.2335,0.2341,0.2344,0.2346,0.2353,0.237,0.2375,0.2382,0.2402,0.241,0.242,0.2425,0.2429,0.2433,0.2475,0.2485,0.2382,0.2382,0.2382,0,0,0.2301,0.2305,0.2305,0.2313,0.2319,0.2331,0.2327,0.2341,0.2356,0.2345,0.2364,0.2372,0.238,0.2402,0.2413,0.24,0.2462,0.2432,0.2436,0.2437,0.2479,0.2489,0.2498,0.2384,0.2384,0.2383,0,0,0.2301,0.2305,0.2308,0.2318,0.2334,0.2342,0.235,0.236,0.2369,0.239,0.2393,0.2414,0.2428,0.244,0.2449,0.2487,0.249,0.2493,0.252,0.2561,0.257,0.2578,0.2599,0.2608,0.2493,0.2493,0.2493,0,0.2304,0.2304,0.2312,0.2322,0.2333,0.2349,0.236,0.2377,0.2392,0.2406,0.2401,0.2443,0.2448,0.2488,0.2502,0.25,0.2518,0.2496,0.2568,0.2576,0.2584,0.2603,0.2613,0.2496,0.2495,0.2495,0.2495,0,0.2306,0.2312,0.2317,0.2334,0.2349,0.2361,0.2387,0.2406,0.2424,0.2441,0.2482,0.2492,0.2518,0.2528,0.2527,0.2585,0.2579,0.2573,0.2553,0.2597,0.2614,0.2624,0.2499,0.2498,0.2497,0.2497,0,0,0.229,0.2313,0.2314,0.2322,0.2356,0.2364,0.2404,0.2437,0.2467,0.2491,0.2531,0.2563,0.2577,0.2588,0.2596,0.2629,0.2695,0.2626,0.2628,0.2648,0.2782,0.2692,0.2693,0.2709,0.2711,0.2713,0.2772,0,0.2287,0.23,0.2318,0.2337,0.2345,0.238,0.2414,0.2453,0.2488,0.2532,0.2567,0.2607,0.26,0.2622,0.2657,0.2692,0.2723,0.2679,0.2736,0.2737,0.2653,0.2702,0.2465,0.2491,0.2781,0.2783,0.2784,0,0.2277,0.2287,0.23,0.2334,0.2342,0.2366,0.2421,0.2456,0.2531,0.2562,0.2615,0.2646,0.2709,0.2693,0.2775,0.2752,0.2773,0.2789,0.2792,0.2698,0.2664,0.2495,0.2498,0.28,0.2799,0.2797,0.2796,0,0.2244,0.2272,0.228,0.229,0.2336,0.236,0.2396,0.2465,0.2502,0.2592,0.2632,0.2703,0.275,0.2796,0.2835,0.2819,0.2915,0.2895,0.2829,0.2822,0.2625,0.2597,0.2951,0.2951,0.2951,0.2951,0.295,0,0.2223,0.2228,0.2266,0.2269,0.2294,0.2341,0.2385,0.2437,0.2518,0.2568,0.2649,0.2697,0.2782,0.2843,0.2864,0.2877,0.2943,0.2842,0.2838,0.2632,0.2605,0.2872,0.2862,0.2953,0.2952,0.2952,0.2952,0,0.2181,0.2203,0.2215,0.2261,0.2277,0.2299,0.2372,0.2404,0.2495,0.2568,0.2603,0.2717,0.2794,0.2857,0.2936,0.2905,0.2929,0.2914,0.2657,0.262,0.28,0.2791,0.2846,0.2843,0.2841,0.2839,0.2838,0,0.2158,0.2158,0.2198,0.2205,0.2226,0.2266,0.2293,0.2382,0.2423,0.2565,0.2594,0.2707,0.2753,0.2831,0.2809,0.2822,0.2899,0.2599,0.2516,0.2802,0.2792,0.2787,0.2782,0.2275,0.2269,0.2264,0.226,0,0.2116,0.2133,0.2141,0.2157,0.2178,0.2199,0.2251,0.2274,0.2385,0.2447,0.2532,0.2585,0.2662,0.2558,0.2575,0.2552,0.2575,0.2497,0.2881,0.2334,0.2267,0.2256,0.227,0.2216,0.2221,0.2224,0.2226,0.2228,0.2084,0.2078,0.209,0.2093,0.2113,0.2114,0.2102,0.2156,0.2194,0.2255,0.2383,0.2382,0.2394,0.2294,0.2222,0.2164,0.2343,0.2223,0.2237,0.2256,0.2175,0.2108,0.2012,0.2015,0.2017,0.202,0.2022,0,0.2025,0.2021,0.2023,0.2012,0.1987,0.2036,0.205,0.201,0.2,0.2083,0.2128,0.1959,0.1875,0.1901,0.1733,0.1716,0.1697,0.1648,0.1595,0.1639,0.1679,0.1567,0.1243,0.1241,0.1238,0.1236,0,0,0.1996,0.1962,0.195,0.1879,0.1874,0.1811,0.1794,0.1754,0.1767,0.1726,0.1706,0.1838,0.1863,0.1548,0.1484,0.1333,0.1486,0.1283,0.1909,0.1893,0.193,0.201,0.1888,0,0,0,0,0]},{"header":{"parameterUnit":"m.s-1","parameterCategory":2,"la1":30.2991,"la2":30.254,"lo1":-89.0895,"lo2":-89.0444,"dy":0.0017,"dx":0.0017,"nx":28,"ny":28,"refTime":"2024-04-14T03:00:00:Z","depth":"2","parameterNumber":3,"parameterNumberName":"V-component_of_CURRENTS"},"data":[0,0,0,0,0,0,0,0,0,0,0,0,0,0,0,0,0,0,0,0,0,0,0,0,0,0,0,0,0,0,0,0,0,0,0,0,0,0,0,0,0,0,0,0,0,0,0,0,0,0,0,0,0,0,0,0,0,0,0.0224,0.0224,0,0.0202,0.0202,0.0201,0.0183,0.0183,0.0183,0.0183,0.0145,0.0144,0.0143,0,0,0,0,0,0,0,0,0,0,0,0,0,0.022,0.022,0.0224,0.0224,0.0224,0.0202,0.0202,0.0201,0.0183,0.0183,0.0183,0.0183,0.0145,0.0144,0.0143,0,0,0,0,0,0,0,0,0,0,0,0,0,0.0212,0.022,0.0224,0.0212,0.0211,0.0202,0.0202,0.0201,0.0183,0.0183,0.0183,0.0183,0.0145,0.0144,0.0143,0.0141,0,0,0.0139,0.0139,0,0,0,0,0,0,0,0,0.0212,0.0212,0.0214,0.0213,0.0211,0.0195,0.0186,0.018,0.0183,0.0194,0.0183,0.0182,0.016,0.0158,0.0155,0.0139,0.0137,0.0139,0.0138,0.0138,0.0137,0,0,0,0,0,0,0,0.0213,0.0213,0.0215,0.0214,0.0212,0.0197,0.0196,0.0185,0.0179,0.0193,0.0191,0.0189,0.016,0.0156,0.0153,0.0137,0.0139,0.0138,0.0137,0.0137,0.0119,0.012,0,0,0,0,0,0,0.0218,0.0214,0.0216,0.0215,0.0211,0.0197,0.0196,0.0201,0.0179,0.0176,0.0189,0.0188,0.0158,0.0155,0.0152,0.0161,0.0138,0.0137,0.0136,0.0119,0.0119,0.012,0,0,0,0,0,0,0.0218,0.0219,0.0217,0.0213,0.0212,0.0198,0.0203,0.02,0.0199,0.0177,0.0173,0.0191,0.0158,0.0154,0.0148,0.0159,0.0136,0.0135,0.0119,0.0119,0.012,0.017,0,0,0,0,0,0,0.0218,0.0219,0.0224,0.0214,0.0212,0.022,0.0203,0.02,0.0198,0.0196,0.0177,0.0173,0.0157,0.015,0.0147,0.0156,0.0134,0.0118,0.0119,0.0119,0.0168,0.0172,0.0175,0,0,0,0,0,0.0218,0.023,0.0225,0.0225,0.022,0.022,0.0218,0.0207,0.0198,0.0204,0.0189,0.0174,0.0151,0.0149,0.0145,0.0155,0.0118,0.0119,0.0119,0.0166,0.0171,0.0175,0,0,0,0,0,0,0.0229,0.0229,0.0223,0.0234,0.023,0.0217,0.0219,0.0211,0.0204,0.0201,0.0179,0.0174,0.0172,0.0156,0.0155,0.015,0.0131,0.0131,0.0168,0.0173,0.0176,0.019,0.0133,0,0,0,0,0,0.0235,0.0244,0.0238,0.0246,0.0245,0.0233,0.0231,0.0225,0.0216,0.0212,0.0197,0.0181,0.0171,0.0167,0.0153,0.0153,0.0136,0.0156,0.016,0.0163,0.0171,0.0149,0.0152,0.0122,0.0122,0.0122,0,0,0.024,0.0241,0.0245,0.0248,0.0243,0.0253,0.0231,0.0234,0.0244,0.0209,0.0216,0.0194,0.0173,0.0173,0.0171,0.0162,0.0163,0.0164,0.0167,0.0173,0.015,0.0153,0.0156,0.0122,0.0122,0.0122,0,0,0.0258,0.0257,0.0272,0.0274,0.0272,0.0268,0.0271,0.0263,0.0262,0.0265,0.024,0.0226,0.0213,0.02,0.0192,0.0208,0.0183,0.0202,0.0236,0.0215,0.0217,0.0219,0.0206,0.0206,0.0206,0.0206,0.0206,0,0.0263,0.0285,0.0276,0.0291,0.0299,0.0279,0.0299,0.0296,0.0286,0.0289,0.0274,0.025,0.0228,0.0228,0.0232,0.0218,0.0204,0.0222,0.0221,0.0222,0.0223,0.0209,0.0209,0.0209,0.0209,0.0208,0.0208,0,0.0294,0.0311,0.032,0.0336,0.0342,0.0355,0.0353,0.0357,0.035,0.0342,0.0339,0.0306,0.0293,0.0281,0.0263,0.0261,0.0248,0.0227,0.0212,0.0229,0.0213,0.0212,0.0212,0.0212,0.0211,0.021,0,0,0.0311,0.0337,0.0342,0.0363,0.037,0.0383,0.0401,0.0413,0.043,0.0407,0.0424,0.0391,0.0366,0.0355,0.0324,0.0303,0.0295,0.0274,0.0271,0.0266,0.0255,0.0242,0.0239,0.0273,0.0273,0.0273,0.0243,0,0.034,0.0384,0.0389,0.0433,0.0457,0.0453,0.0476,0.0481,0.0477,0.0486,0.0447,0.0447,0.0398,0.0395,0.0364,0.0313,0.0293,0.0305,0.0235,0.0233,0.0223,0.0238,0.0245,0.0218,0.0241,0.0241,0.0241,0,0.0374,0.0401,0.0452,0.0495,0.0506,0.0529,0.0566,0.0585,0.0583,0.0579,0.056,0.0528,0.0497,0.0453,0.0374,0.0385,0.0329,0.0283,0.028,0.0251,0.0217,0.0202,0.0215,0.0239,0.0239,0.0239,0.0239,0,0.0403,0.045,0.0497,0.051,0.055,0.0577,0.06,0.0612,0.0643,0.064,0.0656,0.06,0.059,0.0505,0.0406,0.0393,0.0319,0.0287,0.0223,0.0222,0.0205,0.0203,0.0236,0.0236,0.0236,0.0237,0.0237,0,0.044,0.0476,0.0517,0.0543,0.0608,0.0619,0.0683,0.0694,0.072,0.0767,0.0709,0.073,0.0603,0.0543,0.0438,0.0332,0.0342,0.0236,0.0214,0.0223,0.0222,0.0219,0.0218,0.0235,0.0236,0.0236,0.0236,0,0.0468,0.0491,0.0549,0.0601,0.0626,0.0674,0.0747,0.079,0.0805,0.0867,0.0874,0.083,0.0756,0.0624,0.0493,0.0386,0.0276,0.0236,0.026,0.0241,0.0185,0.0186,0.0163,0.0162,0.0162,0.0161,0.0161,0,0.0486,0.0519,0.0595,0.0638,0.0667,0.0739,0.0793,0.0832,0.0884,0.0936,0.0971,0.0922,0.0901,0.0698,0.0505,0.0325,0.0292,0.0204,0.0174,0.0197,0.0178,0.018,0.0182,0.0173,0.0172,0.0172,0.0172,0,0.0521,0.0548,0.0598,0.0687,0.0753,0.0837,0.0916,0.0972,0.1032,0.1085,0.114,0.1129,0.0947,0.0764,0.051,0.0377,0.0228,0.0194,0.0215,0.0191,0.0204,0.0186,0.0188,0.017,0.017,0.017,0.017,0.017,0.0547,0.0588,0.0655,0.0742,0.0821,0.0925,0.1001,0.109,0.1192,0.1277,0.1258,0.124,0.1027,0.0703,0.0479,0.0232,0.0244,0.014,0.0142,0.0143,0.015,0.0162,0.0122,0.0122,0.0122,0.0122,0.0122,0,0.0579,0.0628,0.0705,0.0809,0.0897,0.0941,0.1078,0.1156,0.1286,0.1351,0.1393,0.1189,0.0982,0.0732,0.0377,0.0169,0.0145,0.0085,0.0104,0.0107,0.011,0.0116,0.0078,0.0077,0.0076,0.0076,0,0,0.0595,0.0667,0.0708,0.0852,0.093,0.1061,0.1146,0.1265,0.1344,0.1415,0.1401,0.1353,0.1057,0.0791,0.0502,0.0295,0.0247,0.0244,0.0301,0.036,0.0366,0.016,0.0176,0,0,0,0,0]}],[{"header":{"parameterUnit":"m.s-1","parameterCategory":2,"la1":30.2991,"la2":30.254,"lo1":-89.0895,"lo2":-89.0444,"dy":0.0017,"dx":0.0017,"nx":28,"ny":28,"refTime":"2024-04-14T03:00:00:Z","depth":"4","parameterNumber":2,"parameterNumberName":"U-component_of_CURRENTS"},"data":[0,0,0,0,0,0,0,0,0,0,0,0,0,0,0,0,0,0,0,0,0,0,0,0,0,0,0,0,0,0,0,0,0,0,0,0,0,0,0,0,0,0,0,0,0,0,0,0,0,0,0,0,0,0,0,0,0,0,0.1435,0.1435,0,0.145,0.145,0.145,0.1471,0.1472,0.1472,0.1473,0.1494,0.1494,0.1494,0,0,0,0,0,0,0,0,0,0,0,0,0,0.1426,0.1425,0.1435,0.1435,0.1436,0.145,0.145,0.145,0.1471,0.1472,0.1472,0.1473,0.1494,0.1494,0.1494,0,0,0,0,0,0,0,0,0,0,0,0,0,0.1431,0.1425,0.1435,0.145,0.1452,0.145,0.145,0.145,0.1471,0.1472,0.1472,0.1473,0.1494,0.1494,0.1494,0.1475,0,0,0.1494,0.1494,0,0,0,0,0,0,0,0,0.1431,0.1431,0.1447,0.1449,0.1451,0.1462,0.1455,0.146,0.147,0.146,0.1473,0.1474,0.1485,0.1486,0.1482,0.1476,0.1477,0.1494,0.1494,0.1494,0.1494,0,0,0,0,0,0,0,0.1431,0.1431,0.1438,0.1448,0.145,0.1457,0.1458,0.1455,0.1465,0.1461,0.1464,0.1469,0.1486,0.1482,0.1483,0.1478,0.1494,0.1494,0.1494,0.1494,0.1552,0.1553,0,0,0,0,0,0,0.1433,0.143,0.1438,0.1439,0.1446,0.1456,0.1458,0.1455,0.1465,0.1468,0.1469,0.147,0.1482,0.1483,0.1484,0.1547,0.1494,0.1494,0.1494,0.155,0.1552,0.1554,0,0,0,0,0,0,0.1433,0.1433,0.1437,0.1438,0.1439,0.1456,0.1452,0.1455,0.1485,0.1471,0.1474,0.15,0.1483,0.1484,0.1513,0.1545,0.1494,0.1494,0.1549,0.1551,0.1553,0.1619,0,0,0,0,0,0,0.1432,0.1433,0.1449,0.1438,0.1439,0.1454,0.1452,0.1455,0.1486,0.1489,0.1498,0.1499,0.1483,0.1513,0.1513,0.1544,0.1494,0.1547,0.155,0.1552,0.1615,0.1623,0.163,0,0,0,0,0,0.1431,0.1441,0.1449,0.1451,0.1454,0.1455,0.1457,0.147,0.1487,0.15,0.1515,0.1501,0.1532,0.1514,0.1514,0.1545,0.1545,0.1549,0.1552,0.1611,0.1621,0.163,0,0,0,0,0,0,0.1447,0.1444,0.1452,0.1462,0.147,0.146,0.148,0.149,0.151,0.1527,0.1516,0.1518,0.1556,0.1543,0.1524,0.1572,0.1538,0.1541,0.1583,0.1592,0.16,0.1606,0.1494,0,0,0,0,0,0.1457,0.1467,0.1463,0.1478,0.1483,0.149,0.1501,0.151,0.1519,0.1531,0.1538,0.1551,0.1563,0.1574,0.1577,0.16,0.1596,0.1622,0.163,0.1637,0.1642,0.1661,0.1671,0.1565,0.1565,0.1565,0,0,0.147,0.1471,0.1478,0.1483,0.1491,0.1502,0.1499,0.1523,0.1544,0.1529,0.1571,0.1579,0.1576,0.1605,0.1621,0.1602,0.1668,0.1641,0.1647,0.1649,0.1666,0.1676,0.1685,0.1568,0.1567,0.1567,0,0,0.1484,0.1499,0.1507,0.1515,0.1535,0.1536,0.1552,0.1562,0.1583,0.1616,0.1617,0.1648,0.1662,0.1667,0.167,0.1724,0.1709,0.1732,0.1775,0.1794,0.1803,0.181,0.1829,0.1838,0.1735,0.1735,0.1735,0,0.1505,0.1507,0.1513,0.1523,0.1537,0.1556,0.1571,0.159,0.1614,0.1635,0.1642,0.1688,0.169,0.1724,0.1748,0.1742,0.1751,0.1738,0.1804,0.1811,0.1818,0.1835,0.1844,0.1739,0.1738,0.1738,0.1738,0,0.1511,0.1529,0.1538,0.1554,0.1572,0.159,0.1611,0.1645,0.1679,0.1695,0.1751,0.1759,0.1787,0.1797,0.1791,0.1843,0.1835,0.1811,0.1778,0.1832,0.1847,0.1855,0.1744,0.1743,0.1742,0.1741,0,0,0.1509,0.1536,0.1543,0.1556,0.1591,0.1599,0.1649,0.1684,0.1723,0.1764,0.181,0.1848,0.1868,0.1874,0.1876,0.1897,0.1958,0.1884,0.1883,0.19,0.201,0.1873,0.1868,0.195,0.1951,0.1952,0.2006,0,0.1515,0.1534,0.1551,0.1583,0.1592,0.1632,0.1671,0.1716,0.176,0.181,0.1847,0.1892,0.1892,0.192,0.1945,0.1951,0.1981,0.1946,0.1957,0.1958,0.1827,0.1873,0.1957,0.2011,0.2013,0.2014,0.2015,0,0.1505,0.152,0.1549,0.159,0.1601,0.1635,0.1702,0.1742,0.1818,0.1856,0.1916,0.1944,0.2001,0.1986,0.204,0.2021,0.2031,0.2031,0.2032,0.1885,0.1834,0.1944,0.2029,0.2028,0.2027,0.2026,0.2025,0,0.1475,0.1515,0.154,0.1554,0.1608,0.1646,0.169,0.1764,0.1804,0.1898,0.1939,0.2002,0.2046,0.2069,0.2091,0.2075,0.2135,0.2103,0.1992,0.1983,0.2061,0.2052,0.2144,0.2144,0.2144,0.2144,0.2144,0,0.1448,0.1471,0.1535,0.1546,0.1591,0.1641,0.1704,0.176,0.1841,0.1886,0.197,0.2006,0.2072,0.2111,0.2116,0.2078,0.216,0.2007,0.1986,0.2089,0.2083,0.2067,0.2057,0.2146,0.2145,0.2145,0.2145,0,0.1401,0.1443,0.1475,0.1547,0.1576,0.1614,0.1706,0.1739,0.1838,0.1902,0.1938,0.2031,0.2076,0.2123,0.2161,0.2094,0.2078,0.2049,0.2175,0.216,0.191,0.1903,0.1915,0.1911,0.1907,0.1904,0.1902,0,0.1371,0.1384,0.147,0.1493,0.1532,0.1598,0.1634,0.1731,0.1763,0.1893,0.1906,0.2,0.2048,0.1995,0.2053,0.2049,0.2025,0.2002,0.1936,0.1907,0.1887,0.1886,0.1885,0.1896,0.1895,0.1894,0.1893,0,0.1315,0.1364,0.1392,0.1443,0.1488,0.1523,0.1587,0.1598,0.1704,0.181,0.1825,0.1843,0.189,0.1905,0.1924,0.1916,0.2,0.1963,0.1969,0.1907,0.1883,0.1866,0.1869,0.188,0.1882,0.1883,0.1884,0,0.1283,0.129,0.1338,0.1367,0.1421,0.1423,0.1469,0.1494,0.1537,0.1675,0.1677,0.1777,0.1872,0.1838,0.1853,0.1835,0.1795,0.1717,0.1736,0.1751,0.1668,0.1612,0.1512,0,0,0,0,0,0.1235,0.1226,0.125,0.1265,0.1312,0.1344,0.1417,0.1463,0.1569,0.1535,0.1598,0.1633,0.1645,0.1693,0.164,0.1778,0.1807,0.1706,0.1728,0.1808,0.1823,0.1739,0,0,0,0,0,0,0.12,0.1223,0.1216,0.1172,0.1166,0.1199,0.1246,0.1319,0.1302,0.1422,0.1438,0.1525,0.1566,0.1661,0.1607,0.1621,0.1596,0.1769,0.1764,0.1799,0.1813,0.1825,0.1744,0,0,0,0,0]},{"header":{"parameterUnit":"m.s-1","parameterCategory":2,"la1":30.2991,"la2":30.254,"lo1":-89.0895,"lo2":-89.0444,"dy":0.0017,"dx":0.0017,"nx":28,"ny":28,"refTime":"2024-04-14T03:00:00:Z","depth":"4","parameterNumber":3,"parameterNumberName":"V-component_of_CURRENTS"},"data":[0,0,0,0,0,0,0,0,0,0,0,0,0,0,0,0,0,0,0,0,0,0,0,0,0,0,0,0,0,0,0,0,0,0,0,0,0,0,0,0,0,0,0,0,0,0,0,0,0,0,0,0,0,0,0,0,0,0,0.0171,0.0171,0,0.0157,0.0157,0.0157,0.015,0.015,0.015,0.015,0.0127,0.0126,0.0126,0,0,0,0,0,0,0,0,0,0,0,0,0,0.0168,0.0168,0.0171,0.0171,0.017,0.0157,0.0157,0.0157,0.015,0.015,0.015,0.015,0.0127,0.0126,0.0126,0,0,0,0,0,0,0,0,0,0,0,0,0,0.0164,0.0168,0.0171,0.0165,0.0164,0.0157,0.0157,0.0157,0.015,0.015,0.015,0.015,0.0127,0.0126,0.0126,0.0122,0,0,0.0123,0.0123,0,0,0,0,0,0,0,0,0.0164,0.0164,0.0166,0.0165,0.0165,0.0155,0.0148,0.0145,0.015,0.0156,0.015,0.015,0.0135,0.0134,0.0132,0.0121,0.012,0.0123,0.0122,0.0122,0.0122,0,0,0,0,0,0,0,0.0164,0.0164,0.0166,0.0166,0.0165,0.0155,0.0155,0.0147,0.0146,0.0156,0.0155,0.0153,0.0135,0.0133,0.0131,0.0119,0.0123,0.0122,0.0122,0.0121,0.0107,0.0107,0,0,0,0,0,0,0.0166,0.0165,0.0166,0.0166,0.0164,0.0155,0.0155,0.0159,0.0147,0.0145,0.0153,0.0152,0.0134,0.0132,0.0131,0.0138,0.0122,0.0121,0.0121,0.0107,0.0107,0.0107,0,0,0,0,0,0,0.0167,0.0167,0.0167,0.0164,0.0163,0.0156,0.016,0.0158,0.0161,0.0145,0.0142,0.0157,0.0134,0.0132,0.013,0.0137,0.0121,0.012,0.0107,0.0107,0.0107,0.0145,0,0,0,0,0,0,0.0167,0.0167,0.0172,0.0164,0.0164,0.017,0.016,0.0158,0.0159,0.0159,0.0147,0.0145,0.0134,0.0131,0.0129,0.0135,0.0119,0.0106,0.0107,0.0107,0.0144,0.0147,0.0149,0,0,0,0,0,0.0167,0.0175,0.0173,0.0173,0.0171,0.017,0.0169,0.0163,0.0159,0.0164,0.0156,0.0145,0.0131,0.0131,0.0128,0.0134,0.0106,0.0107,0.0107,0.0143,0.0146,0.0149,0,0,0,0,0,0,0.0175,0.0175,0.0172,0.018,0.0178,0.0169,0.0172,0.0167,0.0165,0.0165,0.015,0.0147,0.0147,0.0134,0.0134,0.013,0.0116,0.0116,0.0144,0.0147,0.015,0.0162,0.0119,0,0,0,0,0,0.018,0.0188,0.0182,0.0189,0.0189,0.0181,0.0181,0.0178,0.0173,0.0172,0.0163,0.0152,0.0145,0.0142,0.0133,0.0132,0.0117,0.0133,0.0136,0.0138,0.0146,0.0126,0.0128,0.0108,0.0108,0.0108,0,0,0.0184,0.0185,0.0189,0.0192,0.0189,0.0196,0.0181,0.0185,0.0194,0.0169,0.0178,0.0162,0.0147,0.0147,0.0145,0.0138,0.0135,0.0139,0.0141,0.0147,0.0126,0.0128,0.013,0.0108,0.0108,0.0108,0,0,0.0198,0.0199,0.021,0.0212,0.0212,0.0209,0.0212,0.0207,0.0208,0.0213,0.0196,0.0187,0.0178,0.0167,0.0161,0.0172,0.0151,0.0167,0.0192,0.0173,0.0174,0.0175,0.0159,0.0159,0.0168,0.0168,0.0168,0,0.0203,0.0219,0.0213,0.0224,0.0231,0.0218,0.0233,0.0232,0.0228,0.0231,0.0222,0.0205,0.0189,0.0188,0.0191,0.0179,0.0165,0.0182,0.0177,0.0178,0.0178,0.0161,0.016,0.017,0.017,0.017,0.017,0,0.0224,0.0238,0.0245,0.0258,0.0264,0.0275,0.0274,0.0279,0.0277,0.0271,0.0271,0.0248,0.0239,0.0228,0.0214,0.0211,0.0199,0.0183,0.0171,0.0183,0.0164,0.0162,0.0173,0.0172,0.0172,0.0171,0,0,0.0234,0.0256,0.0261,0.0279,0.0286,0.0297,0.0311,0.0322,0.0337,0.0321,0.0336,0.0312,0.0294,0.0285,0.0261,0.0242,0.023,0.0218,0.0216,0.0207,0.019,0.0177,0.0174,0.0213,0.0213,0.0213,0.0176,0,0.0255,0.0288,0.0294,0.0331,0.0348,0.0349,0.0368,0.0374,0.0374,0.0381,0.0353,0.0355,0.0318,0.0317,0.0291,0.0246,0.0227,0.0241,0.0176,0.0175,0.0165,0.0172,0.0212,0.0175,0.0174,0.0174,0.0173,0,0.0277,0.0299,0.034,0.0378,0.0387,0.0407,0.044,0.0457,0.0456,0.0455,0.0442,0.0418,0.0391,0.036,0.029,0.0301,0.0253,0.0214,0.0211,0.0186,0.0158,0.0159,0.017,0.017,0.017,0.0171,0.0171,0,0.0294,0.0334,0.0373,0.0384,0.042,0.0445,0.0467,0.0479,0.0505,0.0505,0.0517,0.0472,0.0463,0.0393,0.0308,0.0301,0.0229,0.0207,0.0151,0.0149,0.0155,0.0154,0.0163,0.0163,0.0163,0.0163,0.0164,0,0.0316,0.0348,0.0388,0.0409,0.0465,0.0478,0.0534,0.0545,0.0568,0.0603,0.056,0.057,0.0471,0.0416,0.033,0.0236,0.0244,0.016,0.014,0.0172,0.0173,0.0154,0.0153,0.0162,0.0162,0.0163,0.0163,0,0.033,0.0353,0.0403,0.0452,0.0477,0.0519,0.0586,0.062,0.0636,0.0681,0.0687,0.0646,0.0575,0.047,0.0358,0.0274,0.0179,0.0146,0.0195,0.0178,0.0106,0.0108,0.0079,0.0079,0.0078,0.0078,0.0077,0,0.0339,0.0366,0.0438,0.0476,0.0504,0.057,0.0617,0.0655,0.0692,0.0727,0.0748,0.0702,0.0659,0.0491,0.0371,0.0208,0.018,0.0124,0.0106,0.0115,0.0098,0.0101,0.0104,0.0076,0.0076,0.0076,0.0076,0,0.0356,0.0385,0.0427,0.0506,0.0566,0.0637,0.0704,0.0737,0.0786,0.08,0.08,0.072,0.0641,0.0498,0.0374,0.0254,0.0152,0.0117,0.0117,0.0099,0.011,0.0095,0.0098,0.0073,0.0074,0.0074,0.0074,0,0.0371,0.0403,0.0462,0.0533,0.061,0.0685,0.0721,0.0768,0.0809,0.0839,0.0837,0.0753,0.0704,0.0523,0.0408,0.0288,0.0249,0.0191,0.0186,0.0187,0.0221,0.025,0.0245,0,0,0,0,0,0.0383,0.042,0.0483,0.0562,0.0639,0.0689,0.0772,0.08,0.0846,0.085,0.0846,0.0773,0.0609,0.0538,0.0416,0.0384,0.0221,0.0235,0.0151,0.0061,0.0064,0.0082,0,0,0,0,0,0,0.0389,0.0447,0.048,0.0576,0.0632,0.0723,0.078,0.0812,0.0812,0.0834,0.0749,0.072,0.056,0.0677,0.0406,0.0372,0.0295,0.0164,0.016,0.006,0.0062,0.0064,0.0084,0,0,0,0,0]}]]